Weather History for KAPC - October, 2014

Change the Weather History Date:

Tuesday, October 28, 2014

  Actual Average Record
Temperature  
Mean Temperature 58 °F 56 °F  
Max Temperature 76 °F 71 °F 88 °F (2003)
Min Temperature 39 °F 41 °F 33 °F (2004)
Degree Days  
Heating Degree Days 7    
Month to date heating degree days 101  
Since 1 July heating degree days 145  
Cooling Degree Days 0    
Month to date cooling degree days 31  
Year to date cooling degree days 267  
Growing Degree Days 7 (Base 50)    
Moisture  
Dew Point 47 °F    
Average Humidity 68    
Maximum Humidity 100    
Minimum Humidity 35    
Precipitation  
Precipitation 0.00 in - - ()
Month to date precipitation 0.44  
Year to date precipitation 9.09  
Since 1 July precipitation 0.82  
Sea Level Pressure  
Sea Level Pressure 30.06 in    
Wind  
Wind Speed 4 mph (SSE)    
Max Wind Speed 12 mph    
Max Gust Speed 14 mph    
Visibility 10 miles    
Events      
T = Trace of Precipitation, MM = Missing Value Source: NWS Daily Summary

Daily Weather History Graph

Daily Weather History Graph

Search for Another Location

Airport or City:

Trip Planner

Search our weather history database for the weather conditions in past years. The results will help you decide how hot, cold, wet, or windy it might be!

Date:

Astronomy

Oct. 28, 2014 Rise Set
Actual Time 7:31 AM PDT 6:14 PM PDT
Civil Twilight 7:03 AM PDT 6:41 PM PDT
Nautical Twilight 6:32 AM PDT 7:12 PM PDT
Astronomical Twilight 6:02 AM PDT 7:42 PM PDT
Moon 12:03 PM PDT (10/28) 10:26 PM PDT (10/28)
Length of Visible Light 11h 37m
Length of Day
10h 43m
Waxing Crescent, 25% of the Moon is Illuminated
Oct 28
Waxing Crescent
Oct 30
First Quarter
Nov 6
Full
Nov 14
Last Quarter
Nov 22
New

Hourly Weather History & Observations

Time (PDT) Temp. Windchill Dew Point Humidity Pressure Visibility Wind Dir Wind Speed Gust Speed Precip Events Conditions
12:54 AM 46.0 °F - 45.0 °F 96% 30.03 in 10.0 mi Calm Calm - N/A   Clear
1:54 AM 42.1 °F 40.2 °F 42.1 °F 100% 30.04 in 10.0 mi East 3.5 mph - N/A   Clear
2:54 AM 42.1 °F - 42.1 °F 100% 30.04 in 10.0 mi Calm Calm - N/A   Clear
3:54 AM 42.1 °F - 42.1 °F 100% 30.04 in 10.0 mi Calm Calm - N/A   Clear
4:54 AM 43.0 °F - 43.0 °F 100% 30.04 in 10.0 mi Calm Calm - N/A   Clear
5:54 AM 44.1 °F 42.5 °F 43.0 °F 96% 30.05 in 10.0 mi NE 3.5 mph - N/A   Clear
6:54 AM 42.1 °F 40.2 °F 42.1 °F 100% 30.07 in 10.0 mi NE 3.5 mph - N/A   Clear
7:54 AM 41.0 °F 38.0 °F 41.0 °F 100% 30.09 in 10.0 mi North 4.6 mph - N/A   Clear
8:54 AM 50.0 °F - 46.9 °F 89% 30.09 in 10.0 mi NNE 6.9 mph - N/A   Clear
9:54 AM 57.0 °F - 48.0 °F 72% 30.09 in 10.0 mi Calm Calm - N/A   Clear
10:54 AM 62.1 °F - 48.9 °F 62% 30.10 in 10.0 mi Variable 3.5 mph - N/A   Clear
11:54 AM 64.9 °F - 46.0 °F 50% 30.10 in 10.0 mi WSW 4.6 mph - N/A   Clear
12:54 PM 70.0 °F - 44.1 °F 39% 30.08 in 10.0 mi WSW 4.6 mph - N/A   Clear
1:54 PM 72.0 °F - 46.0 °F 40% 30.05 in 10.0 mi South 4.6 mph - N/A   Clear
2:54 PM 73.9 °F - 44.1 °F 34% 30.04 in 10.0 mi South 5.8 mph - N/A   Clear
3:54 PM 73.9 °F - 46.9 °F 38% 30.03 in 10.0 mi SSW 10.4 mph - N/A   Clear
4:54 PM 72.0 °F - 51.1 °F 48% 30.03 in 10.0 mi SSW 9.2 mph - N/A   Clear
5:54 PM 66.9 °F - 52.0 °F 59% 30.02 in 10.0 mi South 8.1 mph - N/A   Clear
6:54 PM 61.0 °F - 52.0 °F 72% 30.04 in 10.0 mi South 4.6 mph - N/A   Clear
7:54 PM 55.9 °F - 50.0 °F 80% 30.06 in 10.0 mi Calm Calm - N/A   Clear
8:54 PM 55.9 °F - 51.1 °F 84% 30.06 in 10.0 mi SE 4.6 mph - N/A   Clear
9:54 PM 54.0 °F - 51.1 °F 90% 30.07 in 10.0 mi SSE 5.8 mph - N/A   Clear
10:54 PM 55.0 °F - 53.1 °F 93% 30.09 in 10.0 mi Calm Calm - N/A   Clear
11:54 PM 52.0 °F - 51.1 °F 97% 30.10 in 10.0 mi Calm Calm - N/A   Clear